Torna al catalogo

STARLINK-31248

AttivoComunicazioniVLEO
NORAD 58840·PAYLOAD·🇺🇸 United States

Lanciato Jan 24, 2024 da Vandenberg Space Force Base

Loading…

Prossimi Passaggi (prossime 24 ore)

TLE

AggiornatoSource: CelesTrak SupGP

Epoca: Sep 14, 2026, 14:59 UTC

1 58840C 24017Q   26257.62479167 -.00025737  00000+0 -76107-3 0  2579
2 58840  53.1589  55.1010 0001013  79.7897 330.2776 15.34376812    11

Traccia STARLINK-31248 in tempo reale con AllMySat

Download on the App Store